| time (UTC) | temp F | wind direction | speed MPH | gust MPH | rain 1hr in | rain 24hr in | rain mn in | humidity % | barometer mb |
| 20260510230503 | 80 | 233 | 4.0 | 8.0 | 0.00 | 0.00 | 0.00 | 81 | 1016.5 |
| 20260510230004 | 80 | 228 | 5.0 | 10.0 | 0.00 | 0.00 | 0.00 | 81 | 1016.4 |
| 20260510225504 | 80 | 228 | 5.0 | 10.0 | 0.00 | 0.00 | 0.00 | 80 | 1016.4 |
| 20260510224004 | 82 | 223 | 6.0 | 11.0 | 0.00 | 0.00 | 0.00 | 79 | 1016.1 |
| 20260510223504 | 82 | 220 | 5.0 | 11.0 | 0.00 | 0.00 | 0.00 | 78 | 1016.1 |
| 20260510223004 | 82 | 219 | 5.0 | 10.0 | 0.00 | 0.00 | 0.00 | 79 | 1016.1 |
| 20260510222503 | 82 | 219 | 5.0 | 10.0 | 0.00 | 0.00 | 0.00 | 79 | 1016.1 |
| 20260510222004 | 82 | 215 | 4.0 | 10.0 | 0.00 | 0.00 | 0.00 | 79 | 1016.0 |
| 20260510221504 | 82 | 218 | 4.0 | 10.0 | 0.00 | 0.00 | 0.00 | 80 | 1016.2 |
| 20260510221004 | 82 | 220 | 6.0 | 12.0 | 0.00 | 0.00 | 0.00 | 80 | 1016.2 |
| 20260510220504 | 82 | 222 | 6.0 | 12.0 | 0.00 | 0.00 | 0.00 | 80 | 1016.2 |
| 20260510220004 | 82 | 223 | 7.0 | 13.0 | 0.00 | 0.00 | 0.00 | 80 | 1016.2 |
| 20260510215504 | 83 | 221 | 7.0 | 13.0 | 0.00 | 0.00 | 0.00 | 79 | 1016.2 |
| 20260510215003 | 83 | 219 | 6.0 | 13.0 | 0.00 | 0.00 | 0.00 | 78 | 1016.1 |
| 20260510214504 | 84 | 217 | 5.0 | 11.0 | 0.00 | 0.00 | 0.00 | 77 | 1016.1 |
| 20260510214003 | 84 | 219 | 6.0 | 12.0 | 0.00 | 0.00 | 0.00 | 77 | 1016.1 |
| 20260510213503 | 85 | 222 | 7.0 | 16.0 | 0.00 | 0.00 | 0.00 | 77 | 1016.0 |
| 20260510213003 | 86 | 222 | 7.0 | 16.0 | 0.00 | 0.00 | 0.00 | 75 | 1016.0 |
| 20260510212503 | 87 | 218 | 4.0 | 12.0 | 0.00 | 0.00 | 0.00 | 72 | 1015.8 |
| 20260510212003 | 88 | 198 | 2.0 | 12.0 | 0.00 | 0.00 | 0.00 | 65 | 1015.6 |
| 20260510211503 | 89 | 134 | 3.0 | 7.0 | 0.00 | 0.00 | 0.00 | 65 | 1015.6 |
| 20260510211004 | 89 | 111 | 3.0 | 8.0 | 0.00 | 0.00 | 0.00 | 64 | 1015.5 |
| 20260510210003 | 90 | 135 | 3.0 | 10.0 | 0.00 | 0.00 | 0.00 | 63 | 1015.3 |
| 20260510205504 | 91 | 108 | 3.0 | 10.0 | 0.00 | 0.00 | 0.00 | 61 | 1015.3 |
| 20260510205003 | 92 | 95 | 2.0 | 10.0 | 0.00 | 0.00 | 0.00 | 59 | 1015.3 |
| 20260510204504 | 92 | 94 | 2.0 | 4.0 | 0.00 | 0.00 | 0.00 | 57 | 1015.2 |
| 20260510204004 | 92 | 94 | 2.0 | 5.0 | 0.00 | 0.00 | 0.00 | 56 | 1015.2 |
| 20260510203504 | 92 | 85 | 3.0 | 8.0 | 0.00 | 0.00 | 0.00 | 57 | 1015.2 |
| 20260510202003 | 92 | 71 | 5.0 | 9.0 | 0.00 | 0.00 | 0.00 | 56 | 1015.2 |
| 20260510201503 | 92 | 70 | 3.0 | 9.0 | 0.00 | 0.00 | 0.00 | 55 | 1015.2 |
| 20260510201003 | 92 | 79 | 3.0 | 9.0 | 0.00 | 0.00 | 0.00 | 56 | 1015.2 |
| 20260510195003 | 93 | 101 | 2.0 | 5.0 | 0.00 | 0.00 | 0.00 | 56 | 1015.0 |
| 20260510194503 | 93 | 84 | 3.0 | 10.0 | 0.00 | 0.00 | 0.00 | 55 | 1015.1 |
| 20260510193503 | 93 | 70 | 4.0 | 9.0 | 0.00 | 0.00 | 0.00 | 56 | 1015.3 |
| 20260510192504 | 93 | 74 | 5.0 | 10.0 | 0.00 | 0.00 | 0.00 | 55 | 1015.5 |
| 20260510191504 | 92 | 80 | 3.0 | 7.0 | 0.00 | 0.00 | 0.00 | 58 | 1015.5 |
| 20260510191004 | 92 | 83 | 4.0 | 9.0 | 0.00 | 0.00 | 0.00 | 57 | 1015.5 |
| 20260510190504 | 93 | 88 | 3.0 | 9.0 | 0.00 | 0.00 | 0.00 | 56 | 1015.5 |
| 20260510190004 | 93 | 90 | 2.0 | 7.0 | 0.00 | 0.00 | 0.00 | 58 | 1015.6 |
| 20260510185504 | 93 | 86 | 2.0 | 8.0 | 0.00 | 0.00 | 0.00 | 57 | 1015.6 |
| 20260510185004 | 93 | 79 | 2.0 | 8.0 | 0.00 | 0.00 | 0.00 | 56 | 1015.7 |
| 20260510184504 | 94 | 48 | 2.0 | 7.0 | 0.00 | 0.00 | 0.00 | 56 | 1015.8 |
| 20260510183504 | 95 | 76 | 3.0 | 9.0 | 0.00 | 0.00 | 0.00 | 55 | 1015.8 |
| 20260510183004 | 94 | 70 | 2.0 | 8.0 | 0.00 | 0.00 | 0.00 | 56 | 1015.8 |
| 20260510182504 | 94 | 66 | 1.0 | 6.0 | 0.00 | 0.00 | 0.00 | 56 | 1016.0 |
| 20260510181504 | 93 | 106 | 2.0 | 5.0 | 0.00 | 0.00 | 0.00 | 56 | 1016.1 |
| 20260510181004 | 93 | 95 | 3.0 | 6.0 | 0.00 | 0.00 | 0.00 | 58 | 1016.2 |
| 20260510180504 | 92 | 90 | 2.0 | 7.0 | 0.00 | 0.00 | 0.00 | 59 | 1016.2 |
| 20260510175004 | 92 | 75 | 3.0 | 9.0 | 0.00 | 0.00 | 0.00 | 57 | 1016.6 |
| 20260510174504 | 93 | 72 | 4.0 | 10.0 | 0.00 | 0.00 | 0.00 | 56 | 1016.6 |
| 20260510174004 | 93 | 62 | 5.0 | 13.0 | 0.00 | 0.00 | 0.00 | 55 | 1016.6 |
| 20260510173504 | 94 | 56 | 4.0 | 13.0 | 0.00 | 0.00 | 0.00 | 55 | 1016.6 |
| 20260510172504 | 94 | 63 | 3.0 | 9.0 | 0.00 | 0.00 | 0.00 | 54 | 1016.6 |
| 20260510171504 | 93 | 72 | 4.0 | 10.0 | 0.00 | 0.00 | 0.00 | 55 | 1016.7 |
| 20260510171004 | 92 | 83 | 4.0 | 9.0 | 0.00 | 0.00 | 0.00 | 57 | 1016.8 |
| 20260510170505 | 92 | 87 | 4.0 | 9.0 | 0.00 | 0.00 | 0.00 | 57 | 1017.0 |
| 20260510170004 | 92 | 81 | 4.0 | 9.0 | 0.00 | 0.00 | 0.00 | 58 | 1017.0 |
| 20260510165504 | 91 | 78 | 4.0 | 10.0 | 0.00 | 0.00 | 0.00 | 60 | 1017.2 |
| 20260510165003 | 92 | 67 | 3.0 | 10.0 | 0.00 | 0.00 | 0.00 | 59 | 1017.2 |
| 20260510164504 | 92 | 67 | 2.0 | 10.0 | 0.00 | 0.00 | 0.00 | 62 | 1017.2 |
| 20260510164004 | 92 | 75 | 2.0 | 5.0 | 0.00 | 0.00 | 0.00 | 62 | 1017.2 |
| 20260510163004 | 92 | 35 | 2.0 | 5.0 | 0.00 | 0.00 | 0.00 | 63 | 1017.3 |
| 20260510162504 | 91 | 52 | 3.0 | 5.0 | 0.00 | 0.00 | 0.00 | 63 | 1017.5 |
| 20260510162004 | 90 | 63 | 3.0 | 9.0 | 0.00 | 0.00 | 0.00 | 65 | 1017.3 |
| 20260510161504 | 90 | 54 | 3.0 | 9.0 | 0.00 | 0.00 | 0.00 | 65 | 1017.4 |
| 20260510161004 | 90 | 53 | 3.0 | 8.0 | 0.00 | 0.00 | 0.00 | 66 | 1017.4 |
| 20260510160503 | 90 | 38 | 3.0 | 8.0 | 0.00 | 0.00 | 0.00 | 66 | 1017.5 |
| 20260510160004 | 89 | 38 | 2.0 | 6.0 | 0.00 | 0.00 | 0.00 | 66 | 1017.6 |
| 20260510155503 | 89 | 47 | 3.0 | 8.0 | 0.00 | 0.00 | 0.00 | 67 | 1017.6 |
| 20260510155003 | 88 | 57 | 4.0 | 9.0 | 0.00 | 0.00 | 0.00 | 67 | 1017.6 |
| 20260510154503 | 88 | 68 | 4.0 | 9.0 | 0.00 | 0.00 | 0.00 | 66 | 1017.7 |
| 20260510154003 | 88 | 68 | 3.0 | 8.0 | 0.00 | 0.00 | 0.00 | 69 | 1017.6 |
| 20260510153504 | 87 | 48 | 2.0 | 8.0 | 0.00 | 0.00 | 0.00 | 70 | 1017.6 |
| 20260510153004 | 87 | 51 | 3.0 | 10.0 | 0.00 | 0.00 | 0.00 | 70 | 1017.6 |
| 20260510152003 | 86 | 64 | 4.0 | 9.0 | 0.00 | 0.00 | 0.00 | 71 | 1017.5 |
| 20260510151503 | 87 | 62 | 3.0 | 9.0 | 0.00 | 0.00 | 0.00 | 70 | 1017.5 |
| 20260510151003 | 87 | 60 | 3.0 | 10.0 | 0.00 | 0.00 | 0.00 | 73 | 1017.5 |
| 20260510150504 | 87 | 64 | 4.0 | 10.0 | 0.00 | 0.00 | 0.00 | 72 | 1017.3 |
| 20260510150004 | 86 | 71 | 3.0 | 8.0 | 0.00 | 0.00 | 0.00 | 74 | 1017.3 |
| 20260510144505 | 85 | 48 | 2.0 | 4.0 | 0.00 | 0.00 | 0.00 | 74 | 1017.2 |
| 20260510143005 | 85 | 63 | 3.0 | 6.0 | 0.00 | 0.00 | 0.00 | 75 | 1017.2 |
| 20260510142504 | 84 | 69 | 3.0 | 6.0 | 0.00 | 0.00 | 0.00 | 76 | 1017.2 |
| 20260510142004 | 84 | 71 | 3.0 | 8.0 | 0.00 | 0.00 | 0.00 | 77 | 1017.2 |
| 20260510141505 | 84 | 66 | 3.0 | 8.0 | 0.00 | 0.00 | 0.00 | 78 | 1017.2 |
| 20260510140503 | 84 | 65 | 2.0 | 4.0 | 0.00 | 0.00 | 0.00 | 79 | 1017.1 |
| 20260510140003 | 84 | 55 | 1.0 | 4.0 | 0.00 | 0.00 | 0.00 | 82 | 1017.0 |
| 20260510135503 | 83 | 356 | 1.0 | 4.0 | 0.00 | 0.00 | 0.00 | 82 | 1017.0 |
| 20260510135003 | 83 | 3 | 2.0 | 4.0 | 0.00 | 0.00 | 0.00 | 83 | 1017.0 |
| 20260510134503 | 82 | 56 | 1.0 | 3.0 | 0.00 | 0.00 | 0.00 | 84 | 1016.9 |
| 20260510134003 | 82 | 35 | 2.0 | 3.0 | 0.00 | 0.00 | 0.00 | 85 | 1016.9 |
| 20260510133503 | 81 | 342 | 2.0 | 4.0 | 0.00 | 0.00 | 0.00 | 86 | 1017.0 |
| 20260510133003 | 81 | 348 | 2.0 | 4.0 | 0.00 | 0.00 | 0.00 | 87 | 1016.9 |
| 20260510132503 | 81 | 1 | 2.0 | 5.0 | 0.00 | 0.00 | 0.00 | 87 | 1016.8 |
| 20260510132003 | 80 | 28 | 2.0 | 5.0 | 0.00 | 0.00 | 0.00 | 88 | 1016.7 |
| 20260510131504 | 80 | 54 | 2.0 | 5.0 | 0.00 | 0.00 | 0.00 | 91 | 1016.7 |
| 20260510131004 | 79 | 66 | 2.0 | 4.0 | 0.00 | 0.00 | 0.00 | 94 | 1016.7 |
| 20260510130504 | 78 | 41 | 2.0 | 4.0 | 0.00 | 0.00 | 0.00 | 95 | 1016.7 |
| 20260510130003 | 77 | 10 | 1.0 | 4.0 | 0.00 | 0.00 | 0.00 | 97 | 1016.8 |
| 20260510125504 | 77 | 1 | 1.0 | 4.0 | 0.00 | 0.00 | 0.00 | 100 | 1016.8 |
| 20260510125003 | 76 | 11 | 1.0 | 4.0 | 0.00 | 0.00 | 0.00 | 99 | 1016.7 |
| 20260510124004 | 76 | 62 | 2.0 | 7.0 | 0.00 | 0.00 | 0.00 | 99 | 1016.7 |
| 20260510123503 | 75 | 70 | 2.0 | 7.0 | 0.00 | 0.00 | 0.00 | 99 | 1016.6 |
| 20260510123003 | 75 | 53 | 1.0 | 4.0 | 0.00 | 0.00 | 0.00 | 99 | 1016.6 |
| 20260510122003 | 74 | 56 | 1.0 | 2.0 | 0.00 | 0.00 | 0.00 | 99 | 1016.5 |
| 20260510121504 | 74 | 101 | 1.0 | 2.0 | 0.00 | 0.00 | 0.00 | 99 | 1016.5 |
| 20260510121003 | 74 | 114 | 1.0 | 2.0 | 0.00 | 0.00 | 0.00 | 99 | 1016.4 |
| 20260510120503 | 73 | 0 | 0.0 | 2.0 | 0.00 | 0.00 | 0.00 | 99 | 1016.4 |
| 20260510120004 | 73 | 0 | 0.0 | 2.0 | 0.00 | 0.00 | 0.00 | 99 | 1016.3 |
| 20260510115504 | 73 | 114 | 1.0 | 2.0 | 0.00 | 0.00 | 0.00 | 99 | 1016.5 |
| 20260510114003 | 72 | 0 | 0.0 | 0.0 | 0.00 | 0.00 | 0.00 | 99 | 1016.0 |
| 20260510113503 | 72 | 0 | 0.0 | 1.0 | 0.00 | 0.00 | 0.00 | 99 | 1016.0 |
| 20260510112503 | 72 | 0 | 0.0 | 1.0 | 0.00 | 0.00 | 0.00 | 99 | 1015.9 |
| 20260510112004 | 72 | 114 | 1.0 | 2.0 | 0.00 | 0.00 | 0.00 | 99 | 1015.9 |
| 20260510111503 | 72 | 114 | 1.0 | 2.0 | 0.00 | 0.00 | 0.00 | 99 | 1016.0 |
| 20260510111003 | 72 | 136 | 1.0 | 3.0 | 0.00 | 0.00 | 0.00 | 100 | 1015.8 |
| 20260510110503 | 71 | 193 | 1.0 | 3.0 | 0.00 | 0.00 | 0.00 | 99 | 1015.8 |
| 20260510110004 | 71 | 0 | 0.0 | 1.0 | 0.00 | 0.00 | 0.00 | 100 | 1015.6 |
| 20260510105504 | 71 | 0 | 0.0 | 0.0 | 0.00 | 0.00 | 0.00 | 100 | 1015.3 |
| 20260510105004 | 71 | 0 | 0.0 | 0.0 | 0.00 | 0.00 | 0.00 | 100 | 1015.2 |
| 20260510104503 | 71 | 0 | 0.0 | 0.0 | 0.00 | 0.00 | 0.00 | 100 | 1015.1 |
| 20260510104003 | 71 | 0 | 0.0 | 0.0 | 0.00 | 0.00 | 0.00 | 100 | 1015.0 |
| 20260510103504 | 71 | 0 | 0.0 | 0.0 | 0.00 | 0.00 | 0.00 | 100 | 1015.0 |
| 20260510103003 | 71 | 0 | 0.0 | 0.0 | 0.00 | 0.00 | 0.00 | 100 | 1015.0 |
| 20260510102003 | 71 | 0 | 0.0 | 1.0 | 0.00 | 0.00 | 0.00 | 100 | 1014.8 |
| 20260510101503 | 71 | 0 | 0.0 | 1.0 | 0.00 | 0.00 | 0.00 | 100 | 1014.8 |
| 20260510100504 | 71 | 0 | 0.0 | 1.0 | 0.00 | 0.00 | 0.00 | 100 | 1014.7 |
| 20260510100004 | 71 | 0 | 0.0 | 2.0 | 0.00 | 0.00 | 0.00 | 100 | 1014.6 |
| 20260510095504 | 71 | 216 | 1.0 | 2.0 | 0.00 | 0.00 | 0.00 | 100 | 1014.7 |
| 20260510095004 | 71 | 216 | 1.0 | 2.0 | 0.00 | 0.00 | 0.00 | 100 | 1014.7 |
| 20260510094504 | 71 | 0 | 0.0 | 2.0 | 0.00 | 0.00 | 0.00 | 100 | 1014.8 |
| 20260510094004 | 71 | 0 | 0.0 | 0.0 | 0.00 | 0.00 | 0.00 | 100 | 1014.5 |
| 20260510093503 | 71 | 0 | 0.0 | 1.0 | 0.00 | 0.00 | 0.00 | 100 | 1014.5 |
| 20260510093003 | 72 | 0 | 0.0 | 1.0 | 0.00 | 0.00 | 0.00 | 100 | 1014.5 |
| 20260510092503 | 72 | 0 | 0.0 | 1.0 | 0.00 | 0.00 | 0.00 | 100 | 1014.5 |
| 20260510092003 | 72 | 0 | 0.0 | 0.0 | 0.00 | 0.00 | 0.00 | 100 | 1014.6 |
| 20260510091504 | 72 | 0 | 0.0 | 1.0 | 0.00 | 0.00 | 0.00 | 100 | 1014.6 |
| 20260510091003 | 72 | 0 | 0.0 | 1.0 | 0.00 | 0.00 | 0.00 | 100 | 1014.6 |
| 20260510090504 | 72 | 0 | 0.0 | 0.0 | 0.00 | 0.00 | 0.00 | 100 | 1014.7 |
| 20260510085504 | 71 | 0 | 0.0 | 0.0 | 0.00 | 0.00 | 0.00 | 100 | 1014.4 |
| 20260510085004 | 71 | 0 | 0.0 | 0.0 | 0.00 | 0.00 | 0.00 | 100 | 1014.4 |
| 20260510084504 | 72 | 0 | 0.0 | 0.0 | 0.00 | 0.00 | 0.00 | 100 | 1014.4 |
| 20260510084004 | 71 | 0 | 0.0 | 1.0 | 0.00 | 0.00 | 0.00 | 100 | 1014.4 |
| 20260510083503 | 72 | 0 | 0.0 | 1.0 | 0.00 | 0.00 | 0.00 | 100 | 1014.4 |
| 20260510083003 | 72 | 0 | 0.0 | 0.0 | 0.00 | 0.00 | 0.00 | 100 | 1014.2 |
| 20260510082503 | 72 | 0 | 0.0 | 0.0 | 0.00 | 0.00 | 0.00 | 100 | 1014.2 |
| 20260510082003 | 72 | 0 | 0.0 | 0.0 | 0.00 | 0.00 | 0.00 | 100 | 1014.3 |
| 20260510081503 | 72 | 0 | 0.0 | 1.0 | 0.00 | 0.00 | 0.00 | 100 | 1014.3 |
| 20260510081003 | 72 | 0 | 0.0 | 2.0 | 0.00 | 0.00 | 0.00 | 100 | 1014.3 |
| 20260510080503 | 72 | 0 | 0.0 | 2.0 | 0.00 | 0.00 | 0.00 | 100 | 1014.3 |
| 20260510080004 | 72 | 0 | 0.0 | 1.0 | 0.00 | 0.00 | 0.00 | 100 | 1014.4 |
| 20260510075504 | 72 | 0 | 0.0 | 1.0 | 0.00 | 0.00 | 0.00 | 100 | 1014.5 |
| 20260510075004 | 72 | 0 | 0.0 | 1.0 | 0.00 | 0.00 | 0.00 | 97 | 1014.5 |
| 20260510074503 | 72 | 0 | 0.0 | 1.0 | 0.00 | 0.00 | 0.00 | 97 | 1014.4 |
| 20260510074004 | 72 | 0 | 0.0 | 1.0 | 0.00 | 0.00 | 0.00 | 97 | 1014.5 |
| 20260510073503 | 72 | 0 | 0.0 | 1.0 | 0.00 | 0.00 | 0.00 | 97 | 1014.5 |
| 20260510073003 | 72 | 0 | 0.0 | 1.0 | 0.00 | 0.00 | 0.00 | 97 | 1014.5 |
| 20260510072503 | 72 | 0 | 0.0 | 1.0 | 0.00 | 0.00 | 0.00 | 97 | 1014.5 |
| 20260510072003 | 72 | 216 | 1.0 | 2.0 | 0.00 | 0.00 | 0.00 | 97 | 1014.5 |
| 20260510070504 | 72 | 0 | 0.0 | 1.0 | 0.00 | 0.00 | 0.00 | 97 | 1014.5 |
| 20260510070004 | 72 | 216 | 1.0 | 2.0 | 0.00 | 0.00 | 0.00 | 97 | 1014.5 |
| 20260510065504 | 72 | 216 | 1.0 | 3.0 | 0.00 | 0.00 | 0.00 | 97 | 1014.5 |
| 20260510065004 | 72 | 0 | 0.0 | 3.0 | 0.00 | 0.00 | 0.00 | 97 | 1014.4 |
| 20260510064504 | 72 | 0 | 0.0 | 0.0 | 0.00 | 0.00 | 0.00 | 97 | 1014.5 |
| 20260510064004 | 72 | 0 | 0.0 | 0.0 | 0.00 | 0.00 | 0.00 | 97 | 1014.6 |
| 20260510063004 | 72 | 0 | 0.0 | 0.0 | 0.00 | 0.00 | 0.00 | 97 | 1014.5 |
| 20260510062504 | 72 | 0 | 0.0 | 0.0 | 0.00 | 0.00 | 0.00 | 97 | 1014.6 |
| 20260510062003 | 72 | 0 | 0.0 | 0.0 | 0.00 | 0.00 | 0.00 | 97 | 1014.6 |
| 20260510061503 | 73 | 0 | 0.0 | 1.0 | 0.00 | 0.00 | 0.00 | 97 | 1014.8 |
| 20260510061003 | 73 | 0 | 0.0 | 1.0 | 0.00 | 0.00 | 0.00 | 97 | 1014.9 |
| 20260510060503 | 73 | 0 | 0.0 | 1.0 | 0.00 | 0.00 | 0.00 | 97 | 1014.9 |
| 20260510060004 | 73 | 0 | 0.0 | 0.0 | 0.00 | 0.00 | 0.00 | 97 | 1014.9 |
| 20260510055504 | 73 | 0 | 0.0 | 1.0 | 0.00 | 0.00 | 0.00 | 97 | 1014.9 |
| 20260510055004 | 73 | 0 | 0.0 | 1.0 | 0.00 | 0.00 | 0.00 | 97 | 1015.1 |
| 20260510054504 | 73 | 0 | 0.0 | 0.0 | 0.00 | 0.00 | 0.00 | 96 | 1015.2 |
| 20260510054003 | 73 | 0 | 0.0 | 0.0 | 0.00 | 0.00 | 0.00 | 96 | 1015.3 |
| 20260510053004 | 73 | 0 | 0.0 | 0.0 | 0.00 | 0.00 | 0.00 | 97 | 1015.6 |
| 20260510052504 | 73 | 0 | 0.0 | 0.0 | 0.00 | 0.00 | 0.00 | 96 | 1015.7 |
| 20260510052004 | 73 | 0 | 0.0 | 1.0 | 0.00 | 0.00 | 0.00 | 96 | 1015.7 |
| 20260510051503 | 73 | 0 | 0.0 | 1.0 | 0.00 | 0.00 | 0.00 | 96 | 1015.9 |
| 20260510051004 | 73 | 216 | 1.0 | 1.0 | 0.00 | 0.00 | 0.00 | 96 | 1016.0 |
| 20260510050503 | 73 | 216 | 1.0 | 1.0 | 0.00 | 0.00 | 0.00 | 96 | 1016.0 |
| 20260510045004 | 74 | 0 | 0.0 | 1.0 | 0.00 | 0.00 | 0.00 | 96 | 1016.0 |
| 20260510044503 | 74 | 0 | 0.0 | 1.0 | 0.00 | 0.00 | 0.00 | 96 | 1015.9 |
| 20260510044004 | 74 | 0 | 0.0 | 1.0 | 0.00 | 0.00 | 0.00 | 96 | 1015.9 |
| 20260510043504 | 74 | 0 | 0.0 | 1.0 | 0.00 | 0.00 | 0.00 | 96 | 1015.8 |
| 20260510043004 | 74 | 0 | 0.0 | 2.0 | 0.00 | 0.00 | 0.00 | 96 | 1015.8 |
| 20260510042005 | 74 | 213 | 1.0 | 3.0 | 0.00 | 0.00 | 0.00 | 96 | 1015.9 |
| 20260510041004 | 74 | 212 | 1.0 | 2.0 | 0.00 | 0.00 | 0.00 | 96 | 1015.9 |
| 20260510040503 | 74 | 212 | 1.0 | 3.0 | 0.00 | 0.00 | 0.00 | 96 | 1015.9 |
| 20260510040005 | 74 | 0 | 0.0 | 3.0 | 0.00 | 0.00 | 0.00 | 96 | 1015.9 |
| 20260510034503 | 74 | 212 | 1.0 | 1.0 | 0.00 | 0.00 | 0.00 | 95 | 1015.9 |
| 20260510034003 | 74 | 212 | 1.0 | 2.0 | 0.00 | 0.00 | 0.00 | 95 | 1015.9 |
| 20260510033504 | 74 | 212 | 1.0 | 2.0 | 0.00 | 0.00 | 0.00 | 95 | 1015.8 |
| 20260510033004 | 74 | 213 | 1.0 | 3.0 | 0.00 | 0.00 | 0.00 | 95 | 1015.8 |
| 20260510032504 | 74 | 216 | 1.0 | 3.0 | 0.00 | 0.00 | 0.00 | 95 | 1015.8 |
| 20260510032004 | 74 | 219 | 1.0 | 3.0 | 0.00 | 0.00 | 0.00 | 95 | 1015.7 |
| 20260510031504 | 74 | 219 | 1.0 | 3.0 | 0.00 | 0.00 | 0.00 | 95 | 1015.7 |
| 20260510031004 | 74 | 218 | 1.0 | 3.0 | 0.00 | 0.00 | 0.00 | 95 | 1015.7 |
| 20260510030503 | 75 | 0 | 0.0 | 2.0 | 0.00 | 0.00 | 0.00 | 95 | 1015.9 |
| 20260510030003 | 75 | 0 | 0.0 | 2.0 | 0.00 | 0.00 | 0.00 | 94 | 1015.9 |
| 20260510025503 | 75 | 0 | 0.0 | 2.0 | 0.00 | 0.00 | 0.00 | 94 | 1015.9 |
| 20260510024003 | 75 | 0 | 0.0 | 1.0 | 0.00 | 0.00 | 0.00 | 94 | 1015.7 |
| 20260510023503 | 75 | 0 | 0.0 | 2.0 | 0.00 | 0.00 | 0.00 | 94 | 1015.9 |
| 20260510023003 | 75 | 0 | 0.0 | 2.0 | 0.00 | 0.00 | 0.00 | 94 | 1015.8 |
| 20260510022504 | 75 | 218 | 1.0 | 2.0 | 0.00 | 0.00 | 0.00 | 94 | 1015.7 |
| 20260510022003 | 75 | 218 | 1.0 | 4.0 | 0.00 | 0.00 | 0.00 | 94 | 1015.7 |
| 20260510021503 | 75 | 218 | 1.0 | 4.0 | 0.00 | 0.00 | 0.00 | 94 | 1015.6 |
| 20260510020504 | 75 | 217 | 2.0 | 3.0 | 0.00 | 0.00 | 0.00 | 94 | 1015.5 |
| 20260510020003 | 75 | 217 | 2.0 | 5.0 | 0.00 | 0.00 | 0.00 | 94 | 1015.4 |
| 20260510014503 | 75 | 237 | 2.0 | 5.0 | 0.00 | 0.00 | 0.00 | 94 | 1015.3 |
| 20260510013503 | 75 | 222 | 3.0 | 5.0 | 0.00 | 0.00 | 0.00 | 94 | 1015.5 |
| 20260510013003 | 75 | 218 | 3.0 | 6.0 | 0.00 | 0.00 | 0.00 | 93 | 1015.4 |
| 20260510012504 | 75 | 216 | 3.0 | 6.0 | 0.00 | 0.00 | 0.00 | 93 | 1015.0 |
| 20260510012003 | 75 | 220 | 3.0 | 7.0 | 0.00 | 0.00 | 0.00 | 93 | 1015.1 |
| 20260510011504 | 76 | 224 | 3.0 | 7.0 | 0.00 | 0.00 | 0.00 | 93 | 1015.1 |
| 20260510011004 | 76 | 226 | 2.0 | 6.0 | 0.00 | 0.00 | 0.00 | 94 | 1014.9 |
| 20260510010504 | 76 | 223 | 3.0 | 6.0 | 0.00 | 0.00 | 0.00 | 94 | 1014.9 |
| 20260510010004 | 75 | 224 | 3.0 | 6.0 | 0.00 | 0.00 | 0.00 | 94 | 1014.9 |
| 20260510005503 | 76 | 225 | 3.0 | 6.0 | 0.00 | 0.00 | 0.00 | 93 | 1014.7 |
| 20260510005004 | 76 | 216 | 4.0 | 7.0 | 0.00 | 0.00 | 0.00 | 93 | 1014.6 |
| 20260510004504 | 76 | 216 | 5.0 | 10.0 | 0.00 | 0.00 | 0.00 | 93 | 1014.5 |
| 20260510004004 | 76 | 217 | 4.0 | 10.0 | 0.00 | 0.00 | 0.00 | 93 | 1014.3 |
| 20260510003504 | 76 | 216 | 3.0 | 8.0 | 0.00 | 0.00 | 0.00 | 92 | 1014.3 |
| 20260510003004 | 76 | 214 | 2.0 | 8.0 | 0.00 | 0.00 | 0.00 | 91 | 1014.3 |
| 20260510002503 | 76 | 216 | 3.0 | 7.0 | 0.00 | 0.00 | 0.00 | 91 | 1014.2 |
| 20260510002005 | 76 | 218 | 3.0 | 7.0 | 0.00 | 0.00 | 0.00 | 90 | 1014.1 |
| 20260510001504 | 76 | 219 | 4.0 | 12.0 | 0.00 | 0.00 | 0.00 | 90 | 1014.0 |
| 20260510001004 | 76 | 217 | 5.0 | 12.0 | 0.00 | 0.00 | 0.00 | 89 | 1013.9 |
| 20260510000504 | 77 | 217 | 5.0 | 13.0 | 0.00 | 0.00 | 0.00 | 89 | 1013.8 |
| 20260510000004 | 77 | 217 | 6.0 | 13.0 | 0.00 | 0.00 | 0.00 | 88 | 1013.8 |
| 20260509235504 | 77 | 218 | 5.0 | 14.0 | 0.00 | 0.00 | 0.00 | 88 | 1013.7 |
| 20260509235004 | 78 | 216 | 4.0 | 14.0 | 0.00 | 0.00 | 0.00 | 87 | 1013.6 |
| 20260509234504 | 78 | 214 | 3.0 | 7.0 | 0.00 | 0.00 | 0.00 | 86 | 1013.7 |
| 20260509234004 | 78 | 220 | 5.0 | 10.0 | 0.00 | 0.00 | 0.00 | 86 | 1013.8 |
| 20260509233504 | 78 | 218 | 5.0 | 10.0 | 0.00 | 0.00 | 0.00 | 85 | 1013.7 |
| 20260509233004 | 79 | 214 | 4.0 | 10.0 | 0.00 | 0.00 | 0.00 | 85 | 1013.9 |
| 20260509232004 | 80 | 233 | 4.0 | 9.0 | 0.00 | 0.00 | 0.00 | 83 | 1013.8 |
| 20260509231505 | 80 | 258 | 3.0 | 9.0 | 0.00 | 0.00 | 0.00 | 82 | 1013.9 |
| 20260509231004 | 80 | 270 | 2.0 | 7.0 | 0.00 | 0.00 | 0.00 | 82 | 1013.8 |